Weather History for Broomfield, CO

Change the Weather History Date:

Saturday, January 26, 2013

  Actual Average Record
Temperature  
Mean Temperature 44 °F -  
Max Temperature 53 °F 44 °F 64 °F (2002)
Min Temperature 35 °F 25 °F -3 °F (1991)
Degree Days  
Heating Degree Days 21    
Moisture  
Dew Point 27 °F    
Average Humidity 57    
Maximum Humidity 81    
Minimum Humidity 30    
Precipitation  
Precipitation 0.00 in - - ()
Sea Level Pressure  
Sea Level Pressure 29.94 in    
Wind  
Wind Speed 2 mph (NNW)    
Max Wind Speed 8 mph    
Max Gust Speed -    
Visibility 12 miles    
Events Rain    
Averages and records for this station are not official NWS values.
T = Trace of Precipitation, MM = Missing Value Source: NWS Daily Summary

Daily Weather History Graph

Daily Weather History Graph

Search for Another Location

Airport:

Trip Planner

Search our weather history database for the weather conditions in past years. The results will help you decide how hot, cold, wet, or windy it might be!

Date:

Astronomy

Jan. 26, 2013 Rise Set
Actual Time 7:13 AM MST 5:13 PM MST
Civil Twilight 6:44 AM MST 5:41 PM MST
Nautical Twilight 6:11 AM MST 6:14 PM MST
Astronomical Twilight 5:39 AM MST 6:46 PM MST
Moon 5:10 PM MST (1/26) 6:33 AM MST (1/26)
Length of Visible Light 10h 57m
Length of Day
9h 59m
Full, 100% of the Moon is Illuminated
Jan 26
Full
Jan 26
Full
Feb 3
Last Quarter
Feb 10
New
Feb 17
First Quarter

Hourly Weather History & Observations

Time (MST) Temp. Windchill Dew Point Humidity Pressure Visibility Wind Dir Wind Speed Gust Speed Precip Events Conditions
12:16 AM 42.8 °F - 24.8 °F 49% 30.05 in 10.0 mi Calm Calm - N/A   Clear
12:35 AM 41.0 °F 39.0 °F 24.8 °F 53% 30.05 in 10.0 mi NNW 3.5 mph - N/A   Clear
12:56 AM 41.0 °F - 23.0 °F 49% 30.05 in 10.0 mi Calm Calm - N/A   Clear
1:16 AM 41.0 °F - 24.8 °F 53% 30.04 in 10.0 mi Calm Calm - N/A   Clear
1:36 AM 37.4 °F - 23.0 °F 56% 30.05 in 10.0 mi Calm Calm - N/A   Clear
1:56 AM 37.4 °F - 23.0 °F 56% 30.04 in 10.0 mi Calm Calm - N/A   Clear
2:16 AM 39.2 °F - 24.8 °F 56% 30.04 in 10.0 mi Calm Calm - N/A   Clear
2:36 AM 37.4 °F - 23.0 °F 56% 30.03 in 10.0 mi Calm Calm - N/A   Clear
2:56 AM 35.6 °F 32.8 °F 23.0 °F 60% 30.02 in 10.0 mi West 3.5 mph - N/A   Clear
3:16 AM 37.4 °F 34.9 °F 23.0 °F 56% 30.02 in 10.0 mi North 3.5 mph - N/A   Clear
3:36 AM 37.4 °F - 23.0 °F 56% 30.01 in 10.0 mi Calm Calm - N/A   Clear
3:56 AM 37.4 °F - 24.8 °F 60% 30.01 in 10.0 mi Calm Calm - N/A   Clear
4:16 AM 37.4 °F 34.9 °F 24.8 °F 60% 30.00 in 10.0 mi WNW 3.5 mph - N/A   Clear
4:36 AM 39.2 °F 35.9 °F 23.0 °F 52% 30.00 in 10.0 mi SSE 4.6 mph - N/A   Clear
4:56 AM 37.4 °F 32.1 °F 24.8 °F 60% 29.99 in 10.0 mi ESE 6.9 mph - N/A   Clear
5:48 AM 41.0 °F 38.0 °F 23.0 °F 49% 29.94 in 30.0 mi North 4.6 mph - N/A   Partly Cloudy
6:47 AM 35.6 °F - 23.0 °F 60% 30.00 in 50.0 mi Calm Calm - N/A   Scattered Clouds
7:50 AM 37.4 °F 32.8 °F 23.0 °F 56% 29.99 in 60.0 mi NW 5.8 mph - N/A   Scattered Clouds
8:47 AM 41.0 °F 38.0 °F 24.8 °F 53% 30.00 in 60.0 mi NNE 4.6 mph - N/A   Scattered Clouds
9:50 AM 41.0 °F 38.0 °F 24.8 °F 53% 30.02 in 60.0 mi North 4.6 mph - N/A   Overcast
10:47 AM 44.6 °F 42.2 °F 23.0 °F 43% 30.01 in 50.0 mi NNW 4.6 mph - N/A   Mostly Cloudy
11:55 AM 48.2 °F - 24.8 °F 40% 29.97 in 60.0 mi North 4.6 mph - N/A   Mostly Cloudy
12:47 PM 50.0 °F - 23.0 °F 35% 29.92 in 60.0 mi Calm Calm - N/A   Mostly Cloudy
1:50 PM 51.8 °F - 21.2 °F 30% 29.88 in 60.0 mi NE 3.5 mph - N/A   Mostly Cloudy
2:47 PM 53.6 °F - 23.0 °F 30% 29.87 in 60.0 mi North 8.1 mph - N/A   Mostly Cloudy
3:59 PM 50.0 °F - 23.0 °F 35% 29.87 in 60.0 mi North 5.8 mph - N/A   Mostly Cloudy
5:45 PM 46.4 °F - 23.0 °F 40% 29.85 in 20.0 mi Calm Calm - N/A   Overcast
6:50 PM 46.4 °F - 28.4 °F 50% 29.85 in 20.0 mi Calm Calm - N/A   Overcast
7:45 PM 42.8 °F 38.6 °F 32.0 °F 66% 29.84 in 20.0 mi NW 6.9 mph - N/A   Light Drizzle
8:54 PM 41.0 °F 37.1 °F 35.6 °F 81% 29.81 in 15.0 mi WNW 5.8 mph - N/A Rain Light Rain
9:51 PM 41.0 °F - 35.6 °F 81% 29.79 in 15.0 mi Calm Calm - N/A   Overcast
10:16 PM 42.8 °F - 35.6 °F 76% 29.78 in 10.0 mi Calm Calm - N/A   Overcast
10:36 PM 41.0 °F - 35.6 °F 81% 29.78 in 10.0 mi Calm Calm - N/A   Overcast
10:56 PM 41.0 °F - 35.6 °F 81% 29.77 in 10.0 mi Calm Calm - N/A   Overcast
11:16 PM 41.0 °F - 35.6 °F 81% 29.76 in 10.0 mi Calm Calm - N/A   Overcast
11:36 PM 41.0 °F - 35.6 °F 81% 29.76 in 10.0 mi Calm Calm - N/A   Overcast
11:56 PM 41.0 °F - 35.6 °F 81% 29.75 in 10.0 mi Calm Calm - N/A   Overcast